Temp
8 8 8 8 8 8 8 8 8 8 8 8 8 7 7 7 7 6 6 5 5 5 5 4 4 4 4 4 3 4 4 4 4 4 4 4 4 3 2 3 2 2 1
7 7 7 7 8 8 7 7 7 7 7 7 7 7 7 7 6 6 5 5 5 4 4 4 4 3 3 3 3 3 3 3 3 3 3 4 5 4 2 2 2 2 2
7 7 7 7 7 7 7 7 7 7 6 6 7 7 7 6 6 5 5 4 4 4 4 3 3 3 3 3 2 2 2 3 3 2 1 2 2 2 2 2 1 0 -0
7 7 7 7 7 6 6 6 6 6 6 6 6 6 6 5 5 4 4 4 4 4 3 3 3 2 2 2 2 2 2 2 1 1 0 -0 -1 -1 -0 -1 -1 -1 -1
7 7 6 6 6 6 6 6 6 6 6 6 6 6 6 5 4 4 4 3 3 3 2 2 2 2 1 1 1 1 1 0 -0 -1 -1 -2 -2 -2 -2 -1 -2 -2 -2
6 6 6 6 6 6 6 6 6 6 6 6 5 5 4 4 3 3 3 3 3 2 2 1 1 1 1 1 0 -0 -0 -1 -1 -2 -2 -2 -3 -3 -3 -3 -2 -2 -2
6 6 6 6 5 5 5 5 5 6 5 5 5 4 3 3 2 2 2 2 2 1 1 1 1 1 0 0 -0 -1 -1 -2 -2 -2 -2 -3 -3 -3 -3 -4 -2 -2 -2
6 5 5 5 5 5 5 5 5 5 5 4 4 3 2 2 2 1 1 1 1 0 0 -0 -0 -0 -1 -1 -2 -2 -2 -2 -2 -3 -3 -3 -3 -3 -4 -4 -5 -4 -3
6 5 5 5 5 5 5 5 5 4 4 3 3 2 2 2 1 1 1 0 0 -0 -0 -1 -1 -1 -2 -2 -2 -2 -2 -3 -3 -3 -3 -3 -3 -4 -4 -5 -7 -9 -8
6 6 5 5 5 5 4 4 4 4 3 3 2 2 1 1 1 0 -0 -0 -0 -1 -1 -1 -1 -2 -2 -3 -3 -3 -3 -3 -3 -4 -4 -4 -4 -4 -5 -7 -8 -10 -12
6 5 5 5 5 4 4 4 3 3 3 2 2 1 1 0 -0 -1 -1 -1 -1 -1 -1 -2 -2 -3 -3 -3 -3 -3 -4 -4 -4 -4 -4 -5 -5 -6 -7 -8 -9 -11 -13
6 5 5 5 4 4 4 3 3 3 3 2 1 1 0 -0 -1 -1 -1 -2 -2 -2 -2 -3 -3 -3 -3 -4 -4 -4 -4 -4 -4 -5 -5 -6 -7 -7 -8 -10 -10 -12 -13
6 5 5 4 4 4 3 3 3 3 2 2 1 0 -0 -1 -1 -2 -2 -2 -2 -3 -3 -4 -4 -4 -4 -4 -5 -5 -5 -5 -5 -6 -6 -7 -8 -8 -10 -11 -12 -13 -14
5 5 5 4 4 3 3 3 3 3 2 1 0 -0 -1 -2 -2 -2 -3 -3 -3 -4 -4 -4 -5 -5 -5 -5 -5 -5 -5 -6 -6 -7 -7 -8 -9 -10 -12 -12 -13 -14 -15
6 5 5 4 3 3 3 3 2 2 1 0 -0 -1 -2 -2 -3 -3 -3 -4 -4 -4 -5 -5 -5 -5 -6 -6 -6 -6 -6 -6 -7 -7 -8 -9 -10 -12 -13 -15 -15 -16 -16
5 5 4 3 3 3 3 2 2 1 1 -0 -1 -2 -2 -3 -3 -3 -4 -4 -5 -5 -5 -5 -5 -6 -6 -6 -7 -7 -7 -7 -8 -8 -9 -10 -12 -13 -13 -14 -15 -17 -18
4 4 3 3 3 3 2 2 1 1 -0 -1 -2 -3 -3 -3 -4 -4 -5 -5 -5 -5 -6 -6 -6 -6 -7 -7 -7 -8 -8 -8 -9 -10 -11 -12 -12 -14 -14 -14 -15 -17 -18
4 3 3 3 2 2 1 1 1 0 -1 -2 -2 -3 -4 -4 -4 -5 -5 -6 -6 -6 -6 -7 -7 -7 -7 -8 -8 -9 -9 -10 -11 -11 -12 -14 -14 -14 -15 -17 -17 -18 -17
3 3 2 2 2 1 1 1 0 -0 -1 -2 -3 -3 -4 -4 -5 -6 -6 -6 -6 -7 -7 -7 -7 -8 -8 -9 -9 -10 -10 -10 -11 -12 -14 -14 -15 -15 -17 -18 -18 -17 -16
2 2 1 1 1 1 1 1 -0 -1 -2 -3 -3 -4 -5 -5 -6 -6 -6 -7 -7 -7 -8 -8 -8 -8 -9 -9 -10 -11 -12 -12 -12 -12 -14 -15 -16 -17 -18 -19 -18 -17 -17
1 1 1 1 1 1 0 -0 -1 -2 -3 -4 -4 -5 -6 -6 -6 -7 -7 -7 -8 -8 -8 -9 -9 -9 -10 -10 -11 -12 -13 -13 -13 -14 -14 -15 -16 -18 -18 -19 -18 -18 -18
1 1 1 1 1 0 -1 -1 -2 -3 -4 -5 -6 -6 -6 -7 -7 -7 -8 -8 -9 -9 -9 -9 -10 -10 -11 -12 -12 -13 -14 -14 -15 -15 -16 -16 -17 -18 -17 -18 -18 -18 -17
1 1 1 0 -0 -1 -2 -3 -3 -4 -5 -6 -6 -7 -7 -7 -8 -8 -9 -9 -9 -9 -10 -11 -11 -11 -12 -13 -13 -14 -14 -15 -16 -16 -17 -17 -18 -18 -17 -18 -18 -18 -18
0 0 -0 -1 -1 -2 -3 -4 -4 -5 -6 -6 -7 -7 -8 -9 -9 -9 -9 -10 -10 -10 -11 -11 -11 -12 -12 -13 -14 -14 -15 -15 -16 -17 -17 -18 -18 -18 -18 -17 -17 -17 -17
-0 -1 -1 -2 -2 -3 -4 -5 -5 -6 -6 -7 -8 -8 -9 -9 -9 -9 -10 -10 -11 -11 -11 -12 -13 -13 -13 -14 -15 -16 -16 -17 -17 -18 -17 -17 -18 -17 -17 -17 -17 -17 -17
-1 -2 -2 -3 -3 -4 -5 -5 -6 -6 -7 -8 -9 -9 -9 -10 -10 -10 -10 -11 -11 -12 -12 -13 -14 -14 -15 -16 -16 -16 -16 -17 -18 -18 -18 -18 -18 -18 -17 -17 -16 -16 -16
Height
3091 3091 3092 3093 3094 3095 3095 3095 3096 3097 3097 3097 3097 3097 3097 3096 3095 3094 3092 3090 3088 3086 3084 3081 3078 3075 3071 3068 3064 3060 3056 3053 3047 3040 3036 3033 3030 3028 3023 3019 3015 3012 3009
3087 3088 3089 3090 3091 3091 3091 3092 3093 3094 3095 3095 3094 3094 3094 3093 3091 3090 3089 3087 3085 3082 3080 3077 3073 3070 3066 3062 3057 3052 3048 3044 3039 3031 3024 3018 3019 3016 3014 3010 3006 3002 2998
3083 3084 3085 3086 3087 3087 3089 3090 3092 3092 3093 3092 3092 3092 3090 3089 3088 3086 3084 3082 3080 3078 3075 3071 3067 3063 3059 3054 3050 3044 3039 3033 3030 3025 3017 3008 3002 2996 2999 2996 2992 2988 2984
3078 3080 3081 3083 3084 3085 3087 3089 3090 3091 3091 3091 3090 3089 3087 3086 3084 3082 3080 3078 3076 3073 3069 3065 3060 3056 3051 3047 3042 3036 3030 3024 3019 3016 3013 3008 2999 2987 2975 2978 2978 2976 2973
3073 3076 3078 3079 3081 3083 3085 3086 3088 3088 3088 3088 3086 3085 3083 3082 3080 3078 3076 3073 3070 3066 3062 3057 3053 3049 3043 3038 3033 3029 3024 3018 3012 3006 3000 2995 2991 2988 2979 2962 2961 2960 2956
3068 3071 3074 3076 3078 3080 3082 3084 3085 3085 3085 3084 3082 3081 3080 3078 3076 3074 3071 3068 3063 3059 3055 3050 3046 3041 3036 3031 3026 3021 3015 3010 3004 2999 2994 2988 2981 2974 2967 2957 2950 2943 2939
3064 3069 3071 3073 3075 3078 3080 3081 3081 3081 3081 3080 3079 3077 3076 3074 3071 3069 3066 3062 3057 3053 3048 3044 3038 3033 3027 3022 3017 3012 3006 3001 2996 2991 2986 2980 2974 2966 2957 2948 2938 2928 2925
3062 3065 3068 3070 3072 3075 3077 3078 3078 3078 3077 3076 3074 3073 3071 3069 3066 3063 3059 3055 3050 3046 3041 3036 3030 3025 3020 3014 3008 3002 2997 2992 2987 2982 2976 2968 2962 2955 2947 2937 2926 2912 2907
3060 3062 3065 3067 3070 3072 3073 3074 3074 3074 3073 3071 3069 3067 3065 3063 3060 3056 3052 3048 3043 3038 3033 3027 3022 3016 3010 3005 3000 2995 2990 2984 2979 2972 2965 2958 2951 2943 2935 2925 2915 2902 2887
3056 3059 3062 3064 3067 3069 3070 3071 3071 3070 3068 3066 3064 3062 3060 3057 3053 3049 3045 3041 3035 3030 3025 3019 3014 3009 3004 2998 2992 2986 2981 2974 2967 2960 2953 2946 2938 2929 2919 2910 2900 2891 2880
3053 3057 3059 3061 3064 3066 3067 3067 3066 3065 3063 3061 3059 3057 3054 3051 3047 3042 3038 3033 3028 3022 3016 3011 3006 3001 2996 2990 2982 2976 2969 2962 2955 2948 2940 2932 2923 2913 2906 2896 2887 2877 2869
3051 3054 3056 3059 3061 3062 3063 3063 3062 3060 3058 3056 3054 3051 3048 3044 3040 3035 3031 3026 3020 3014 3008 3003 2998 2992 2986 2979 2972 2965 2959 2952 2943 2935 2926 2917 2910 2901 2891 2882 2874 2865 2858
3047 3050 3053 3056 3057 3058 3058 3058 3057 3055 3053 3050 3048 3044 3041 3037 3032 3028 3023 3017 3012 3006 3001 2995 2988 2982 2976 2970 2963 2956 2949 2941 2932 2923 2914 2905 2896 2888 2879 2870 2861 2852 2845
3046 3048 3050 3052 3053 3054 3054 3053 3051 3049 3047 3044 3041 3038 3034 3030 3025 3020 3015 3009 3004 2998 2992 2986 2980 2974 2966 2959 2952 2945 2937 2929 2921 2912 2903 2894 2884 2874 2866 2858 2850 2841 2834
3043 3045 3046 3048 3049 3049 3048 3047 3045 3043 3041 3038 3034 3031 3027 3022 3017 3012 3006 3001 2996 2990 2983 2977 2971 2964 2957 2950 2942 2934 2926 2918 2910 2901 2891 2882 2872 2864 2856 2847 2840 2832 2825
3040 3041 3042 3044 3044 3043 3042 3041 3039 3037 3034 3031 3027 3023 3019 3014 3009 3004 2999 2994 2988 2982 2975 2969 2961 2955 2949 2941 2932 2923 2914 2906 2897 2888 2879 2870 2862 2854 2847 2839 2832 2826 2817
3035 3037 3038 3039 3038 3037 3036 3035 3033 3030 3027 3024 3020 3016 3012 3007 3002 2997 2991 2985 2980 2973 2967 2960 2953 2947 2940 2931 2922 2913 2904 2895 2886 2876 2867 2860 2853 2844 2836 2829 2820 2813 2809
3030 3032 3033 3033 3033 3032 3030 3028 3026 3023 3020 3016 3012 3009 3005 3000 2994 2989 2984 2978 2972 2965 2958 2952 2946 2937 2928 2920 2911 2902 2894 2885 2876 2867 2857 2849 2842 2834 2825 2816 2808 2800 2794
3025 3027 3027 3028 3027 3026 3024 3022 3019 3016 3013 3009 3005 3002 2997 2992 2987 2982 2976 2970 2963 2957 2951 2945 2936 2927 2918 2909 2900 2892 2883 2875 2867 2857 2848 2840 2832 2823 2815 2806 2795 2786 2780
3021 3022 3022 3022 3021 3020 3017 3015 3012 3009 3005 3002 2998 2994 2989 2984 2979 2974 2968 2961 2956 2950 2942 2934 2925 2916 2908 2900 2891 2881 2872 2864 2855 2848 2839 2831 2823 2814 2806 2796 2785 2774 2768
3017 3017 3017 3016 3014 3013 3011 3008 3005 3002 2999 2996 2992 2987 2982 2977 2972 2966 2961 2955 2948 2940 2932 2923 2916 2908 2899 2891 2882 2873 2863 2853 2844 2835 2828 2820 2812 2804 2795 2787 2777 2768 2760
3011 3011 3010 3009 3008 3006 3004 3001 2999 2996 2993 2988 2984 2980 2975 2970 2965 2960 2955 2947 2939 2930 2923 2914 2906 2898 2889 2881 2873 2864 2855 2846 2836 2826 2818 2809 2802 2794 2785 2777 2769 2761 2754
3006 3005 3004 3003 3002 3000 2997 2995 2992 2989 2985 2981 2977 2973 2969 2964 2959 2953 2946 2939 2931 2922 2913 2904 2896 2889 2881 2873 2864 2856 2847 2839 2828 2819 2809 2802 2793 2785 2778 2770 2762 2755 2748
3001 3000 2999 2997 2995 2993 2991 2988 2985 2981 2977 2974 2971 2967 2963 2959 2953 2945 2937 2929 2921 2913 2906 2897 2889 2880 2872 2864 2856 2847 2837 2827 2818 2809 2801 2794 2786 2779 2772 2764 2758 2751 2745
2996 2994 2993 2990 2989 2987 2984 2981 2977 2974 2972 2968 2965 2961 2956 2950 2944 2937 2930 2922 2915 2905 2897 2890 2880 2870 2863 2856 2847 2837 2827 2818 2810 2801 2794 2786 2779 2771 2765 2759 2753 2747 2741
2990 2988 2987 2984 2982 2979 2977 2974 2971 2969 2966 2963 2958 2954 2948 2941 2935 2929 2923 2916 2907 2899 2890 2881 2872 2864 2854 2846 2838 2830 2821 2812 2803 2794 2787 2780 2773 2766 2760 2754 2749 2744 2737
Wind_Speed
15 14 15 15 14 15 15 14 11 9 9 10 10 11 12 14 17 21 22 24 26 27 29 29 30 30 32 33 35 38 40 41 43 46 47 47 47 45 45 48 48 50 50
19 17 16 16 14 13 12 11 9 8 8 8 10 12 15 18 20 22 23 25 26 26 27 28 29 31 33 36 39 41 42 43 44 47 49 50 48 47 46 47 48 48 49
20 19 19 16 14 13 12 11 10 9 9 9 11 14 17 19 20 20 20 22 23 25 27 30 33 35 37 38 40 42 43 43 41 41 45 50 53 55 51 50 50 51 51
24 21 20 17 15 14 13 12 10 9 9 10 13 15 17 17 17 18 20 22 25 27 30 33 35 37 38 39 41 41 40 41 42 42 41 42 47 53 61 56 54 52 52
27 23 20 17 16 16 14 12 11 9 9 12 15 17 17 17 17 20 23 25 29 32 32 34 35 36 38 38 37 37 38 39 41 43 45 46 47 47 52 62 60 58 59
27 24 20 18 18 17 15 13 11 10 11 14 16 16 15 16 19 22 25 30 32 31 31 34 35 37 36 35 35 37 38 40 41 42 44 46 50 52 55 60 64 66 66
25 22 20 21 20 18 16 14 12 11 14 16 19 17 17 19 23 26 30 32 31 32 34 35 36 36 34 35 37 38 39 40 42 44 45 47 50 54 57 61 67 70 70
23 21 22 22 21 19 17 15 13 15 17 20 20 19 21 24 28 30 34 35 34 36 37 37 36 35 36 37 38 40 41 43 44 46 49 52 53 56 59 62 65 70 72
22 22 24 23 21 20 18 16 16 18 20 23 22 23 26 29 32 35 38 37 38 40 39 39 37 37 38 40 41 42 43 44 46 48 51 54 56 59 60 61 61 60 68
23 24 25 24 22 20 19 19 18 20 23 25 24 27 30 32 36 39 41 42 42 43 41 39 38 38 39 40 41 43 44 47 49 51 54 56 59 61 61 60 59 57 56
26 23 24 24 21 20 20 20 21 23 26 27 27 30 33 35 39 42 44 44 44 43 40 39 38 39 40 41 44 45 47 50 52 54 57 60 61 61 60 59 57 57 54
25 23 24 23 20 20 21 21 23 26 29 29 30 33 35 38 42 45 45 45 44 42 39 40 40 41 43 46 47 48 50 52 54 57 59 60 60 60 59 57 55 54 52
27 25 24 22 22 22 22 23 26 28 30 31 33 35 37 41 44 46 46 45 43 40 41 41 42 44 46 48 48 50 52 53 56 58 59 60 59 59 56 54 53 51 47
24 24 23 23 24 23 23 26 29 30 31 33 35 37 40 43 45 47 47 46 43 41 42 43 45 46 48 48 50 52 53 55 57 58 59 59 57 55 53 52 50 46 45
21 24 24 25 24 24 26 29 30 30 33 35 37 39 42 45 47 47 47 45 43 42 43 45 47 48 49 50 52 53 55 56 57 58 58 56 55 52 50 46 45 45 45
22 26 26 24 25 26 28 29 29 32 34 37 40 41 43 46 47 47 45 42 42 43 45 48 50 50 50 51 52 54 55 56 57 57 56 54 51 49 47 46 46 42 41
23 26 24 25 28 29 28 29 31 34 37 38 40 42 44 45 46 45 42 42 44 46 49 49 50 50 49 50 52 53 55 55 55 54 53 52 49 48 48 49 47 43 37
22 24 25 27 27 27 28 31 34 35 36 38 41 43 43 43 44 42 42 43 46 48 49 49 49 50 50 51 53 53 53 53 52 52 51 49 50 49 48 46 47 47 47
23 23 24 24 25 28 30 31 32 33 36 39 42 40 42 42 41 41 42 45 48 49 49 48 49 50 51 52 52 52 52 52 51 50 49 49 50 49 45 44 50 55 52
22 22 23 24 26 28 28 29 31 33 36 39 39 39 40 39 40 41 45 47 49 48 48 49 50 52 52 51 51 51 52 52 51 50 50 49 48 46 43 48 52 51 46
20 21 23 25 26 26 27 29 31 34 36 36 36 37 37 38 40 43 46 47 47 47 49 51 51 52 52 51 51 51 51 51 51 52 52 51 49 44 48 45 44 42 40
20 23 25 24 24 26 28 30 31 33 33 33 34 33 35 38 42 44 45 44 46 48 50 51 52 52 52 51 51 50 49 49 49 51 51 51 48 49 46 42 39 35 34
22 23 22 23 25 26 28 29 29 30 30 30 31 33 36 39 41 44 44 45 47 49 51 52 53 52 52 50 49 49 49 48 48 48 48 47 47 44 41 36 32 31 33
19 20 21 23 25 25 26 27 27 28 28 30 32 35 37 39 41 43 44 47 49 50 51 51 52 52 51 50 49 48 48 49 50 48 47 44 41 38 35 31 28 29 32
17 20 22 23 24 24 25 26 26 26 28 31 32 34 37 40 42 43 45 48 49 51 51 50 51 51 50 48 46 46 48 49 48 46 43 41 38 35 31 28 29 30 32
18 20 22 23 23 25 25 25 26 28 29 30 33 36 39 41 43 45 46 47 49 50 51 50 50 48 47 47 46 46 47 45 41 41 40 38 35 32 30 30 31 31 36
Wind_Direction
242 234 228 231 242 254 261 263 252 250 251 256 259 265 273 279 282 283 284 286 289 290 291 292 294 295 295 296 296 297 298 298 300 301 300 301 301 305 298 302 301 302 300
240 234 228 231 240 248 245 233 228 229 240 250 262 271 275 278 280 284 287 289 290 291 292 293 293 293 294 297 299 300 302 303 304 305 306 307 305 305 304 299 296 296 297
233 234 232 231 233 231 221 219 223 236 249 264 276 281 282 284 287 289 288 289 293 295 295 295 296 298 300 302 304 306 306 307 307 308 309 310 310 308 307 304 305 306 305
226 226 223 223 223 215 213 219 231 246 266 279 283 288 293 294 295 297 299 300 299 298 298 299 301 303 303 304 305 309 309 310 311 310 309 308 309 314 312 310 307 305 303
227 218 214 214 212 209 214 225 238 255 274 287 299 305 304 301 300 301 301 303 304 303 303 303 303 305 306 309 310 311 310 310 312 313 315 314 311 308 306 306 308 307 305
214 205 205 208 205 208 219 232 245 263 285 304 312 310 303 300 302 306 309 310 308 306 307 308 310 312 311 311 311 312 313 314 315 314 312 311 311 311 309 308 308 308 308
204 202 205 204 203 212 225 236 250 274 299 315 316 308 302 306 311 311 312 312 310 310 310 311 314 313 314 314 315 315 315 315 313 312 312 312 311 311 311 311 310 308 308
197 201 203 200 207 218 230 242 262 286 306 318 314 307 306 308 311 313 315 314 312 312 314 316 316 315 315 316 317 317 316 315 314 314 314 313 314 314 313 311 309 308 307
200 204 202 204 213 224 235 249 271 294 307 314 309 305 307 309 311 313 315 314 313 316 316 317 317 318 318 318 318 316 315 313 313 314 314 314 315 314 314 312 310 308 307
206 207 205 210 219 230 241 255 275 298 305 309 304 304 306 308 310 312 313 314 314 316 317 317 317 317 317 316 315 315 314 313 314 314 315 315 316 316 316 314 310 307 303
209 209 210 215 224 236 247 261 278 296 301 303 302 302 304 305 307 310 311 313 315 317 317 316 315 316 316 316 316 315 314 314 314 315 315 317 319 318 316 313 311 307 304
209 211 216 222 231 243 253 266 282 294 299 298 300 301 301 303 306 307 310 312 315 317 316 315 317 317 319 319 316 315 314 314 315 316 318 319 319 318 316 313 310 306 306
208 213 220 227 238 249 261 274 287 294 296 296 297 299 299 302 304 307 310 314 317 316 315 316 319 320 319 317 315 313 313 314 316 318 318 319 319 317 314 312 311 309 309
214 221 229 236 245 256 269 280 288 292 292 293 294 295 297 300 304 308 313 316 316 315 316 319 319 318 318 317 315 314 315 316 317 318 318 319 318 317 316 312 311 311 308
232 233 236 242 254 266 275 283 287 288 290 291 293 295 297 300 306 310 312 314 314 316 318 318 318 320 319 316 315 316 316 317 317 319 319 320 319 317 315 313 311 310 308
252 243 241 252 263 273 280 283 285 287 289 290 292 294 297 302 306 308 310 312 314 316 317 320 322 321 318 316 316 317 317 318 319 320 321 321 318 316 314 313 311 307 307
252 244 250 260 270 277 279 282 286 287 288 289 290 293 298 303 305 308 311 313 315 318 321 322 320 318 317 318 317 317 319 320 321 322 321 319 319 316 315 312 310 308 304
245 246 256 264 270 275 280 285 286 287 287 288 290 294 299 302 306 310 313 315 318 320 321 320 318 318 320 319 319 320 320 321 323 323 320 319 319 317 315 312 309 304 301
242 252 259 265 272 279 283 284 285 286 286 288 290 299 301 305 309 312 315 318 319 320 318 319 321 321 321 322 321 321 321 322 324 322 319 320 319 318 315 311 307 308 309
250 257 263 270 277 283 283 283 285 285 286 290 298 300 304 308 311 314 317 320 319 318 320 322 323 323 322 322 323 323 324 324 324 321 320 320 318 316 314 312 313 315 317
256 263 270 277 282 282 284 285 286 287 290 297 298 304 306 309 312 317 319 318 319 321 324 324 323 323 323 324 324 324 324 325 324 321 321 321 319 319 316 319 317 317 317
264 272 278 281 283 285 287 288 289 292 296 298 302 305 308 312 317 316 317 320 322 324 324 323 325 325 324 324 324 325 325 323 321 319 321 320 322 322 322 321 321 322 322
273 276 279 284 287 289 291 293 294 295 298 302 304 308 313 315 316 319 321 323 325 324 326 327 326 325 323 323 324 324 322 321 320 321 320 321 323 323 323 325 328 327 324
274 281 286 289 292 294 294 294 296 300 304 305 308 311 313 316 320 322 325 326 326 326 326 326 323 322 323 324 324 324 323 323 323 323 322 325 324 326 327 328 330 329 328
282 287 291 295 297 295 298 300 302 304 304 306 309 313 316 320 324 325 325 326 326 326 325 325 324 324 323 324 326 327 326 324 325 323 326 327 330 331 332 334 334 333 330
293 296 297 298 300 300 300 303 305 304 306 310 313 315 320 324 325 325 326 326 326 326 326 326 325 325 325 327 330 328 326 327 328 327 328 332 333 334 336 337 338 335 332